Location: Marquette
(46.5440°N, 87.3950°W)
Time: 11:46:57
(UTC-05:00)

Daily predictions for brighter satellites

Satellite Brightness Start Highest point End
(mag) Time Altitude Azimuth Time Altitude Azimuth Time Altitude Azimuth
Meteor 1-12 Rocket 4.3 17:26:55 10° N 17:32:39 82° ENE 17:38:27 10° SSE
Cosmos 2150 Rocket 4.2 17:27:53 10° SSW 17:33:21 88° ESE 17:38:49 10° NNE
Okean 1 3.3 17:31:32 10° S 17:35:31 88° WNW 17:39:30 10° N
USA 161 1.5 17:36:01 10° NNE 17:38:59 70° ESE 17:42:00 10° S
CSL-04 Debris 4.4 17:34:41 10° SE 17:39:51 49° ENE 17:45:03 10° N
SMAP 3.4 17:35:48 10° SE 17:40:10 42° ENE 17:44:33 10° N
Cosmos 1634 Rocket 4.3 17:34:22 10° SSW 17:40:35 74° W 17:46:53 10° N
Cosmos 2263 Rocket 4.0 17:42:05 10° NNE 17:43:37 11° NNE 17:45:08 10° NE
Gblst 52 Del rocket 4.2 17:41:11 10° WNW 17:46:43 72° NNE 17:52:40 10° ESE
Meteor 2-4 Rocket 4.1 17:41:51 10° SSE 17:46:48 38° E 17:51:43 10° NNE
Cosmos 2278 4.1 17:47:41 10° S 17:53:04 45° ESE 17:58:28 10° NE
Cosmos 2369 4.1 17:47:51 10° S 17:53:16 47° ESE 17:58:44 10° NE
CSL-04 Rocket 3.7 17:48:15 10° SSE 17:53:39 70° ENE 17:59:10 10° N
Meteor 1-28 Rocket 4.1 17:50:32 10° NNE 17:53:54 30° E 17:57:16 10° SSE
Cosmos 1975 3.8 17:50:37 10° NNW 17:54:35 52° W 17:58:31 10° S
Cosmos 1455 Rocket 3.0 17:50:28 10° N 17:54:54 79° E 17:59:17 10° SSE
ALOS 3.5 17:53:00 10° ESE 17:56:23 20° ENE 17:59:48 10° NNE
Ariane Rocket 3.0 17:51:34 10° SSE 17:56:33 63° ENE 18:01:33 10° N
Cosmos 2266 Rocket 4.1 17:50:43 10° N 17:56:39 52° ENE 18:02:39 10° SSE
USA 238 DEB 4.2 17:50:34 10° NW 17:57:39 71° SW 18:04:47 10° SSE
USA 238 4.2 17:50:40 10° NW 17:57:45 72° SW 18:04:53 10° SSE
Cosmos 1544 Rocket 3.6 17:55:06 10° N 17:59:29 87° W 18:03:48 10° S
Cosmos 724 4.3 17:57:00 10° NW 18:02:49 87° WSW 18:08:37 10° SSE
Cosmos 1697 Rocket 3.4 18:00:48 10° S 18:05:52 35° ESE 18:10:37 11° NE
RESURS DK-1 4.5 18:06:12 10° ESE 18:06:58 10° E 18:07:11 10° E
Cosmos 1655 Rocket 4.5 18:00:40 10° NNW 18:07:01 69° W 18:13:21 10° S
Meteor 1-13 Rocket 4.2 18:01:46 10° S 18:07:22 75° E 18:13:07 10° NNE
Cosmos 1743 3.5 18:03:35 10° NNW 18:07:25 57° W 18:11:13 10° S
IRAS Rocket 4.2 18:02:35 10° SSE 18:08:05 90° E 18:13:36 10° NNW
YAOGAN 1 2.9 18:05:22 10° SE 18:09:25 41° ENE 18:13:31 10° N
Cosmos 1269 Rocket 4.0 18:04:38 10° NNW 18:09:57 70° ENE 18:15:14 10° SSE
Cosmos 1125 Rocket 3.6 18:05:08 10° S 18:10:21 62° ESE 18:15:35 10° NNE
Cosmos 1048 Rocket 4.1 18:10:01 10° NNW 18:15:26 88° WSW 18:20:49 10° SSE
NOSS 5 (C) 4.3 18:12:07 10° SSW 18:15:49 71° SE 18:17:59 19° NE
Cosmos 372 Rocket 4.0 18:12:10 10° S 18:17:19 67° ESE 18:22:28 10° NNE
Cosmos 2082 4.0 18:13:42 10° NNW 18:19:19 72° WSW 18:24:54 10° SSE
ERS-2 3.0 18:16:38 10° SE 18:19:47 28° ENE 18:22:57 10° N
Meteor 1-15 Rocket 4.4 18:16:40 10° N 18:22:34 59° ENE 18:28:22 10° SSE
Landsat 4 4.5 18:20:58 17° NE 18:23:21 32° E 18:26:47 10° SSE
COSMO-SKYMED 1 3.3 18:20:59 15° NE 18:24:05 32° E 18:27:58 10° SSE
SJ 16-02 1.3 18:20:14 10° SSW 18:24:36 81° ESE 18:28:57 11° NNE
NOSS 3-2 (A) 4.2 18:17:37 10° NW 18:25:06 81° SW 18:33:17 10° SSE
CZ-4 R/B 1.3 18:24:43 10° SSE 18:28:37 89° W 18:32:39 10° NNW
CORIOLIS 4.2 18:23:14 10° SSE 18:28:39 83° WSW 18:34:05 10° NNW
Cosmos 2227 Rocket 3.3 18:23:57 10° NW 18:29:22 48° WSW 18:34:46 10° S
Abrixas rocket 2.3 18:29:25 10° WNW 18:32:38 60° N 18:33:51 33° ENE
NOSS 3-2 (C) 4.0 18:26:39 10° NW 18:34:09 89° SW 18:42:22 10° SE
ATLAS 3B R/B 4.0 18:29:00 10° NW 18:35:11 42° WSW 18:41:14 10° S
ATLAS 2AS CENTAUR R/B 3.7 18:35:11 10° WSW 18:42:55 54° NW 18:50:03 13° NNE
Cosmos 1025 Rocket 3.1 18:41:28 10° S 18:45:38 53° E 18:48:17 21° NNE
Gbstr 26 Del rocket 4.4 18:37:58 10° SW 18:46:01 76° SSE 18:50:32 26° ENE
Cosmos 1980 Rocket 2.5 18:42:23 10° S 18:47:44 45° ESE 18:50:26 26° NE
Cosmos 2084 3.4 18:45:31 10° SSW 18:49:34 54° SE 18:50:39 39° ENE
USA 215 3.9 18:44:18 10° SSE 18:50:42 56° SW 18:57:07 10° WNW
Okean 2 3.3 18:47:16 10° S 18:51:18 62° E 18:53:32 25° NNE
Cosmos 1656 3.8 18:47:19 10° SSW 18:52:52 71° WNW 18:57:25 15° NNE
SKYMED 3 4.5 18:51:24 21° NNE 18:54:17 65° ESE 18:58:35 10° S
Cosmos 2297 Rocket 3.9 18:50:22 10° NW 18:55:28 35° WSW 19:00:32 10° S
CZ-2C R/B 3.9 18:51:51 10° N 18:56:34 77° WNW 19:01:19 10° SSW
Cosmos 1553 Rocket 4.4 18:51:02 10° SSE 18:56:54 40° E 19:01:01 19° NNE
SL-24 R/B - RUBIN 2 4.3 18:52:39 10° SSW 18:58:43 61° ESE 19:01:12 33° NE
Okean 1-7 Rocket 3.5 18:55:55 10° S 19:00:14 58° E 19:01:58 33° NNE
Meteor 1-23 Rocket 4.4 18:57:52 10° SSW 19:03:36 74° WNW 19:09:17 10° N
NOSS 3-4 (A) 3.4 18:57:45 10° SSW 19:03:59 80° SE 19:07:29 29° NE
NOSS 3-4 (C) 3.4 18:57:50 10° SSW 19:04:03 79° SE 19:07:33 29° NE
NOAA 12 3.9 19:00:00 10° SSE 19:05:15 79° ENE 19:10:31 10° NNW
Cosmos 1745 Rocket 4.2 19:01:20 10° N 19:07:16 45° ENE 19:13:13 10° SSE
MOS 1 4.4 19:05:15 10° S 19:10:56 76° WSW 19:16:39 10° NNW
NOSS 2-2 (D) 4.4 19:07:36 10° S 19:10:22 32° SE 19:10:22 32° SE
SKYMED 2 3.6 19:09:36 23° N 19:12:18 82° WNW 19:16:38 10° SSW
CENTAUR R/B 3.0 19:06:05 10° NW 19:13:55 78° NE 19:22:17 10° SE
DMSP B5D1-3 4.5 19:12:04 35° NE 19:14:05 62° ESE 19:19:08 10° S
DNEPR-1 R/B 4.3 19:09:24 10° NW 19:14:28 73° SW 19:20:38 10° SSE
Cosmos 1606 Rocket 3.3 19:11:20 10° N 19:15:43 75° E 19:20:01 10° SSE
Cosmos 2227 4.1 19:12:35 10° NNW 19:18:22 81° ENE 19:24:05 10° SSE
Cosmos 2344 4.4 19:16:09 10° SSE 19:22:05 30° ESE 19:22:05 30° ESE
NOSS 2-2 (E) 3.9 19:22:31 10° SSW 19:25:39 48° SSE 19:25:39 48° SSE
FENGYUN 3A 3.9 19:21:39 10° S 19:27:00 69° WSW 19:32:22 10° NNW
Lacrosse 5 rocket 3.7 19:24:32 10° S 19:25:21 14° SSE 19:25:21 14° SSE
Cosmos 2263 Rocket 2.8 19:23:45 10° NNW 19:27:54 39° NNE 19:27:54 39° NNE
BREEZE-M DEB (TANK) 3.3 19:27:17 10° WNW 19:30:16 70° NNE 19:30:38 66° NE
SL-16 R/B 3.5 19:26:49 10° S 19:29:37 25° SSE 19:29:37 25° SSE
ALOS 3.0 19:28:55 10° S 19:33:28 53° W 19:38:03 10° NNW
NOSS 2-2 (C) 4.3 19:29:45 10° SSW 19:32:19 38° S 19:32:19 38° S
Cosmos 2322 Rocket 3.5 19:30:25 10° S 19:32:59 24° SSE 19:32:59 24° SSE
Cosmos 1726 Rocket 4.3 19:34:18 10° NNW 19:42:02 16° S 19:42:58 10° S
SPOT 3 Rocket 4.3 19:34:47 10° S 19:39:49 51° W 19:44:52 10° NNW
Cosmos 2360 4.2 19:37:35 10° SSW 19:43:19 79° WNW 19:44:45 52° NNE
RESURS DK-1 3.2 19:40:13 10° SSW 19:43:08 45° SW 19:43:08 45° SW
EO 1 Del DPAF 4.4 19:45:57 40° WNW 19:46:02 40° WNW 19:49:37 10° SW
Cosmos 2251 Rocket 4.0 19:42:19 10° NNW 19:47:30 58° WSW 19:52:38 10° S
Cosmos 1697 Rocket 3.8 19:44:26 10° SW 19:49:45 41° NW 19:52:23 26° N
COSMOS 2455 3.9 19:51:22 10° NNW 19:54:54 31° N 19:54:54 31° N
COSMO-SKYMED 1 4.5 19:58:12 20° NNW 20:00:09 28° WNW 20:03:51 10° SW
SJ 16-02 4.1 20:01:32 10° W 20:03:50 14° NW 20:05:59 10° NNW
S3M 4.1 20:03:33 10° SSW 20:09:38 69° W 20:11:13 50° NNW
Cosmos 1980 Rocket 3.5 20:26:43 10° WSW 20:31:52 34° NW 20:32:15 34° NW
ATLAS 2AS CENTAUR R/B 4.5 20:29:19 10° WNW 20:35:52 26° NNW 20:37:29 24° N
Cosmos 2263 Rocket 4.5 21:08:00 10° NW 21:09:39 18° NW 21:09:39 18° NW
